Location: 476 Grange Obs.
(45.1421°N, 7.1417°E)
Time: 06:37:02
(UTC+01:00)

Envisat - Pass Details

Date: 27 October 2019
Orbit: 764 x 766 km, 98.1° (Epoch: 17 November)

Event Time Altitude Azimuth Distance (km) Brightness Sun altitude
Rises 06:13:35 0° 29° (NNE) 3,241 6.5 -9.3°
Reaches altitude 10° 06:16:42 10° 49° (NE) 2,309 6.1 -8.7°
Maximum altitude 06:20:01 17° 90° (E) 1,849 6.3 -8.1°
Drops below altitude 10° 06:23:18 10° 131° (SE) 2,297 6.5 -7.6°
Sets 06:26:23 0° 151° (SSE) 3,217 6.9 -7.0°
